Weather History for Ogden Hill AFB, UT

Change the Weather History Date:

Wednesday, February 13, 2013

  Actual Average Record
Temperature  
Mean Temperature 27 °F -  
Max Temperature 32 °F 37 °F 54 °F (2011)
Min Temperature 22 °F 23 °F 8 °F (2004)
Degree Days  
Heating Degree Days 38    
Moisture  
Dew Point 16 °F    
Average Humidity 63    
Maximum Humidity 69    
Minimum Humidity 54    
Precipitation  
Precipitation 0.00 in - - ()
Sea Level Pressure  
Sea Level Pressure 30.34 in    
Wind  
Wind Speed 4 mph (South)    
Max Wind Speed 10 mph    
Max Gust Speed -    
Visibility 10 miles    
Events      
Averages and records for this station are not official NWS values.
T = Trace of Precipitation, MM = Missing Value Source: NWS Daily Summary

Daily Weather History Graph

Daily Weather History Graph

Search for Another Location

Airport:

Trip Planner

Search our weather history database for the weather conditions in past years. The results will help you decide how hot, cold, wet, or windy it might be!

Date:

Astronomy

Feb. 13, 2013 Rise Set
Actual Time 7:24 AM MST 6:00 PM MST
Civil Twilight 6:56 AM MST 6:28 PM MST
Nautical Twilight 6:23 AM MST 7:00 PM MST
Astronomical Twilight 5:52 AM MST 7:32 PM MST
Moon 8:53 AM MST (2/13) 10:09 PM MST (2/13)
Length of Visible Light 11h 32m
Length of Day
10h 35m
Waxing Crescent, 14% of the Moon is Illuminated
Feb 13
Waxing Crescent
Feb 17
First Quarter
Feb 25
Full
Mar 4
Last Quarter
Mar 11
New

Hourly Weather History & Observations

Time (MST) Temp. Windchill Dew Point Humidity Pressure Visibility Wind Dir Wind Speed Gust Speed Precip Events Conditions
12:58 AM 25.2 °F - 14.9 °F 65% 30.42 in 10.0 mi Calm Calm - N/A   Overcast
1:58 AM 25.0 °F 19.3 °F 15.3 °F 67% 30.41 in 10.0 mi SSE 4.6 mph - N/A   Overcast
2:58 AM 24.8 °F 19.1 °F 14.9 °F 66% 30.41 in 10.0 mi SSE 4.6 mph - N/A   Overcast
3:53 AM 23.0 °F 14.7 °F 12.2 °F 63% 30.29 in 10.0 mi South 6.9 mph - N/A   Scattered Clouds
3:58 AM 22.3 °F 13.9 °F 12.6 °F 66% 30.38 in 10.0 mi South 6.9 mph - N/A   Scattered Clouds
4:38 AM 23.0 °F 18.4 °F 14.0 °F 68% 30.29 in 10.0 mi ESE 3.5 mph - N/A   Mostly Cloudy
4:58 AM 24.1 °F - 14.2 °F 66% 30.38 in 10.0 mi South 2.3 mph - N/A   Overcast
5:58 AM 24.8 °F 19.1 °F 15.1 °F 67% 30.40 in 10.0 mi NNW 4.6 mph - N/A   Overcast
6:48 AM 24.8 °F 20.5 °F 15.8 °F 69% 30.32 in 10.0 mi ENE 3.5 mph - N/A   Overcast
6:58 AM 24.8 °F 20.5 °F 15.8 °F 69% 30.40 in 10.0 mi East 3.5 mph - N/A   Overcast
7:38 AM 23.0 °F 14.7 °F 14.0 °F 68% 30.31 in 10.0 mi SSE 6.9 mph - N/A   Overcast
7:58 AM 23.4 °F 15.2 °F 14.5 °F 69% 30.40 in 10.0 mi SSE 6.9 mph - N/A   Mostly Cloudy
8:31 AM 26.6 °F 19.1 °F 15.8 °F 64% 30.33 in 10.0 mi South 6.9 mph - N/A   Overcast
8:56 AM 26.6 °F 18.2 °F 15.8 °F 64% 30.32 in 10.0 mi South 8.1 mph - N/A   Overcast
9:07 AM 26.6 °F 16.8 °F 15.8 °F 64% 30.31 in 10.0 mi South 10.4 mph - N/A   Overcast
9:47 AM 26.6 °F 19.1 °F 17.6 °F 69% 30.32 in 2.5 mi South 6.9 mph - N/A   Haze
9:48 AM 26.6 °F 19.1 °F 17.6 °F 69% 30.32 in 2.0 mi South 6.9 mph - N/A   Haze
9:55 AM 27.1 °F 18.9 °F 17.4 °F 67% 30.40 in 10.0 mi South 8.1 mph - N/A   Overcast
10:54 AM 28.8 °F 23.7 °F 17.2 °F 62% 30.42 in 10.0 mi SSW 4.6 mph - N/A   Overcast
11:55 AM 29.5 °F 24.5 °F 16.7 °F 59% 30.41 in 10.0 mi South 4.6 mph - N/A   Overcast
12:55 PM 30.2 °F - 16.9 °F 58% 30.36 in 10.0 mi Calm Calm - N/A   Overcast
1:55 PM 31.8 °F 28.5 °F 16.7 °F 54% 30.35 in 10.0 mi SW 3.5 mph - N/A   Overcast
1:58 PM 31.8 °F 27.3 °F 16.7 °F 54% 30.35 in 10.0 mi SW 4.6 mph - N/A   Overcast
2:56 PM 32.0 °F - 17.6 °F 55% 30.27 in 10.0 mi Calm Calm - N/A   Overcast
3:58 PM 32.4 °F - 17.6 °F 55% 30.34 in 10.0 mi Calm Calm - N/A   Overcast
4:58 PM 32.2 °F - 17.6 °F 55% 30.32 in 10.0 mi Calm Calm - N/A   Overcast
5:56 PM 32.0 °F - 17.6 °F 55% 30.24 in 10.0 mi Calm Calm - N/A   Overcast
6:58 PM 31.5 °F 28.1 °F 19.2 °F 61% 30.30 in 10.0 mi North 3.5 mph - N/A   Overcast
7:58 PM 31.3 °F 26.6 °F 19.6 °F 62% 30.30 in 10.0 mi NNW 4.6 mph - N/A   Overcast
8:58 PM 31.1 °F 27.7 °F 18.9 °F 61% 30.24 in 10.0 mi ENE 3.5 mph - N/A   Overcast
9:58 PM 31.3 °F 27.9 °F 18.5 °F 59% 30.24 in 10.0 mi ESE 3.5 mph - N/A   Overcast
10:58 PM 30.7 °F 27.3 °F 19.4 °F 63% 30.24 in 10.0 mi SSW 3.5 mph - N/A   Overcast
11:58 PM 29.5 °F - 20.3 °F 69% 30.28 in 10.0 mi SW 1.2 mph - N/A   Overcast